Flag for U.S.A. Weather past 2 weeks in Clearwater, Florida, U.S.A.

Now
59 °F

Clear.


Feels Like: 58 °F
Forecast: 55 / 69 °F
Wind: 6 mph from North

Location: St. Petersburg / Clearwater International Airport

Current Time: Mar 29, 2015 at 2:39:21 AM

Latest Report: Mar 29, 2015 at 1:53 AM


Visibility: 10 mi

Pressure: 30.26 "Hg

Humidity: 60%

Dew point: 45 °F

Location of ClearwaterLocation

Historic Weather in Clearwater — Graph

°F

Clearwater temperature yesterday

Maximum temperature yesterday: 67 °F (at 12:53 PM)
Minimum temperature yesterday: 56 °F (at 7:53 AM)
Average temperature yesterday: 61 °F

Past Weeks' High & Low Weather Summary

 TemperatureHumidityPressure
High85 °F (Mar 16, 3:53 PM)100% (Mar 15, 4:53 AM)30.25 "Hg (Mar 15, 4:53 AM)
Low56 °F (Mar 28, 7:53 AM)40% (Mar 28, 2:53 PM)29.82 "Hg (Mar 27, 5:53 AM)
Average72 °F78%30.05 "Hg
* Reported Midnight between Mar 13 and Mar 14 — Mar 29 12:53 AM, Clearwater, Weather by CustomWeather, © 2015

Note: Actual official high and low records may vary slightly from our data, if they occured in-between our weather recording intervals... More about our weather records

Advertising

Clearwater weather history for previous 24 hours

 ConditionsComfort  
Time TempWeatherWind HumidityBarometerVisibility
12:53 AM
Sun, Mar 29
58 °FClear.7 mph62%30.25 "Hg10 mi
11:53 PM
Sat, Mar 28
58 °FClear.9 mph60%30.24 "Hg10 mi
10:53 PM58 °FClear.10 mph62%30.24 "Hg10 mi
9:53 PM58 °FClear.8 mph60%30.23 "Hg10 mi
8:53 PM58 °FClear.8 mph58%30.21 "Hg10 mi
7:53 PM59 °FSunny.13 mph56%30.19 "Hg10 mi
6:53 PM61 °FSunny.15 mph52%30.17 "Hg10 mi
5:53 PM63 °FSunny.13 mph45%30.16 "Hg10 mi
4:53 PM65 °FSunny.18 mph44%30.15 "Hg10 mi
3:53 PM66 °FSunny.21 mph42%30.15 "Hg10 mi
2:53 PM66 °FSunny.18 mph40%30.17 "Hg10 mi
1:53 PM66 °FSunny.18 mph42%30.19 "Hg10 mi
12:53 PM67 °FSunny.20 mph42%30.19 "Hg10 mi
11:53 AM65 °FSunny.12 mph51%30.19 "Hg10 mi
10:53 AM61 °FSunny.7 mph58%30.19 "Hg10 mi
9:53 AM59 °FSunny.8 mph60%30.18 "Hg10 mi
8:53 AM58 °FSunny.8 mph58%30.16 "Hg10 mi
7:53 AM56 °FClear.7 mph65%30.14 "Hg10 mi
6:53 AM60 °FClear.13 mph53%30.10 "Hg10 mi
5:53 AM60 °FClear.12 mph60%30.08 "Hg10 mi
4:53 AM61 °FClear.14 mph58%30.06 "Hg10 mi
3:53 AM62 °FClear.12 mph58%30.04 "Hg10 mi
2:53 AM62 °FClear.13 mph58%30.04 "Hg10 mi
Weather by CustomWeather, © 2015

See weather overviewHow to use our weather pages